Regional Weather Roundup
Issued by NWS

Home | Current Version | Previous Version | Graphics & Text | Print | Product List | Glossary On
Versions: 1 2 3 4 5 6 7 8 9 10 11 12 13 14 15 16 17 18 19 20 21 22 23 24 25 26 27 28 29 30 31 32 33 34 35 36 37 38 39 40 41 42 43 44 45 46 47 48 49 50
000
ASUS43 KBIS 250531
RWRND
NORTH DAKOTA REGIONAL WEATHER ROUNDUP
NATIONAL WEATHER SERVICE EASTERN NORTH DAKOTA/GRAND FORKS ND
1200 AM CDT SUN JUN 25 2017

  NOTE: "FAIR" INDICATES FEW OR NO CLOUDS BELOW 12,000 FEET WITH NO
  SIGNIFICANT WEATHER AND/OR OBSTRUCTIONS TO VISIBILITY.

NDZ001>003-009>011-017-250600-
...NORTHWEST NORTH DAKOTA...

CITY           SKY/WX    TMP DP  RH WIND       PRES   REMARKS
WILLISTON      FAIR      49  38  65 CALM      30.27S
MINOT          FAIR      49  39  68 SW8       30.25S
MINOT AFB      FAIR      43  39  86 SW6       30.24S
$$

NDZ018>021-031>035-040>046-250600-
...SOUTHWEST NORTH DAKOTA...

CITY           SKY/WX    TMP DP  RH WIND       PRES   REMARKS
BISMARCK       FAIR      51  39  63 W5        30.29S
DICKINSON      FAIR      44  33  65 S5        30.30S
GARRISON         N/A     44  37  76 CALM      30.27S
HETTINGER      FAIR      44  31  60 CALM      30.34R
$$

NDZ004>008-012>016-024-026-027-054-250600-
...NORTHEAST NORTH DAKOTA...

CITY           SKY/WX    TMP DP  RH WIND       PRES   REMARKS
GRAND FORKS    CLOUDY    52  47  83 NW9       30.17S
GRAND FORKS AF CLOUDY    52  43  72 NW9       30.19S
DEVILS LAKE    FAIR      47  44  90 NW8       30.24R
$$

NDZ022-023-025-028>030-036>039-047>053-250600-
...SOUTHEAST NORTH DAKOTA...

CITY           SKY/WX    TMP DP  RH WIND       PRES   REMARKS
JAMESTOWN      CLOUDY    51  48  89 NW7       30.23R
FARGO          CLOUDY    53  42  66 NW13      30.18R
WAHPETON       CLOUDY    50  43  76 NW6       30.19S
$$




USA.gov is the U.S. government's official web portal to all federal, state and local government web resources and services.